This is the latest recevied weather packets stored in our database for station/object MeshWX-1. If no packets are shown the sender has not sent any weather packets the latest 10 day(s).
| Time | Temp. | Humidity | Pressure | Rain* | Wind** | Luminosity | Snow |
|---|---|---|---|---|---|---|---|
| 1788416117 | 26.67° C | 39% | 1000.4 hPa | - | - | - | - |
| 1788416026 | 26.67° C | 39% | 1000.4 hPa | - | - | - | - |
| 1788414454 | 25° C | 42% | 1000.2 hPa | - | - | - | - |
| 1788414273 | 25° C | 42% | 1000.2 hPa | - | - | - | - |
| 1788413972 | 25° C | 42% | 1000.2 hPa | - | - | - | - |
| 1788412413 | 21.11° C | 49% | 1000.3 hPa | - | - | - | - |
| 1788412233 | 21.11° C | 49% | 1000.3 hPa | - | - | - | - |
| 1788412010 | 21.11° C | 49% | 1000.3 hPa | - | - | - | - |
| 1788411902 | 21.11° C | 49% | 1000.3 hPa | - | - | - | - |
| 1788410373 | 17.78° C | 58% | 1000.2 hPa | - | - | - | - |
| 1788410263 | 17.78° C | 58% | 1000.2 hPa | - | - | - | - |
| 1788410253 | 17.78° C | 58% | 1000.2 hPa | - | - | - | - |
| 1788409904 | 17.78° C | 58% | 1000.2 hPa | - | - | - | - |
| 1788408333 | 17.22° C | 57% | 999.8 hPa | - | - | - | - |
| 1788408215 | 17.22° C | 57% | 999.8 hPa | - | - | - | - |
| 1788408013 | 17.22° C | 57% | 999.8 hPa | - | - | - | - |
| 1788407852 | 17.22° C | 57% | 999.8 hPa | - | - | - | - |
| 1788406175 | 17.78° C | 55% | 999.5 hPa | - | - | - | - |
| 1788406052 | 17.78° C | 55% | 999.5 hPa | - | - | - | - |
| 1788405745 | 17.78° C | 55% | 999.5 hPa | - | - | - | - |
| 1788404072 | 18.33° C | 55% | 999.4 hPa | - | - | - | - |
| 1788403952 | 18.33° C | 55% | 999.4 hPa | - | - | - | - |
| 1788403801 | 18.33° C | 55% | 999.4 hPa | - | - | - | - |
| 1788403693 | 18.33° C | 55% | 999.4 hPa | - | - | - | - |
| 1788402032 | 18.89° C | 51% | 999.3 hPa | - | - | - | - |
* Rain since midnight (hover to see other rain measurements)
** Current wind speed in m/s (hover to see current wind gust speed)